Home > Weather > Pforzheim > Past weeks

Flag for Germany Past Weather in Pforzheim, Baden-Württemberg, Germany — Yesterday and Last 2 Weeks

Now
59 °F

Passing clouds.


Feels Like: 58 °F
Forecast: 55 / 78 °F
Wind: 7 mph from Northwest

Location: Stuttgart-Echterdingen

Current Time: May 27, 2016 at 6:52:15 AM

Latest Report: May 27, 2016 at 6:20 AM


Visibility: N/A

Pressure: 29.95 "Hg

Humidity: 88%

Dew Point: 55 °F

Location of PforzheimLocation

Past Weather in Pforzheim — Graph

°F

Pforzheim Temperature Yesterday

Maximum temperature yesterday: 73 °F (at 2:50 PM)
Minimum temperature yesterday: 46 °F (at 3:50 AM)
Average temperature yesterday: 62 °F

High & Low Weather Summary for the Past Weeks

 TemperatureHumidityPressure
High81 °F (May 22, 3:50 PM)100% (May 12, 5:50 PM)30.15 "Hg (May 12, 5:50 PM)
Low41 °F (May 15, 6:50 AM)34% (May 22, 1:50 PM)29.45 "Hg (May 12, 5:20 PM)
Average55 °F76%29.92 "Hg
* Reported May 12 5:20 AM — May 27 5:50 AM, Pforzheim, Weather by CustomWeather, © 2016

Note: Actual official high and low records may vary slightly from our data, if they occured in-between our weather recording intervals... More about our weather records

Advertising

Pforzheim Weather History for the Previous 24 Hours

Scroll right to see more
 ConditionsComfort  
Time TempWeatherWind HumidityBarometerVisibility
5:50 AM
Fri, May 27
57 °FClear.3 mph88%29.92 "Hg10 mi
5:20 AM59 °FClear.3 mph82%29.92 "Hg10 mi
4:50 AM59 °FClear.2 mph88%29.92 "Hg10 mi
4:20 AM61 °FPassing clouds.3 mph83%29.92 "HgN/A
3:50 AM59 °FClear.5 mph82%29.92 "Hg10 mi
3:20 AM59 °FLight rain. Clear.5 mph88%29.92 "HgN/A
2:50 AM59 °FClear.2 mph82%29.92 "Hg10 mi
2:20 AM59 °FClear.3 mph82%29.92 "Hg10 mi
1:50 AM57 °FPassing clouds.5 mph88%29.95 "HgN/A
1:20 AM59 °FClear.3 mph82%29.95 "Hg10 mi
12:50 AM59 °FClear.2 mph82%29.95 "Hg10 mi
12:20 AM59 °FClear.2 mph82%29.95 "Hg10 mi
11:50 PM
Thu, May 26
61 °FClear.3 mph77%29.95 "Hg10 mi
11:20 PM61 °FClear.1 mph77%29.95 "Hg10 mi
10:50 PM63 °FClear.2 mph73%29.95 "Hg10 mi
10:20 PM66 °FClear.1 mph64%29.95 "Hg10 mi
9:50 PM66 °FSunny.3 mph64%29.95 "Hg10 mi
9:20 PM68 °FPassing clouds.8 mph60%29.95 "HgN/A
8:50 PM70 °FScattered clouds.1 mph53%29.98 "HgN/A
8:20 PM72 °FScattered clouds.5 mph47%29.95 "HgN/A
7:50 PM72 °FScattered clouds.7 mph50%29.95 "HgN/A
7:20 PM73 °FScattered clouds.7 mph44%29.95 "HgN/A
6:50 PM73 °FScattered clouds.7 mph41%29.95 "HgN/A
6:20 PM73 °FScattered clouds.7 mph44%29.95 "HgN/A
5:50 PM73 °FPassing clouds.8 mph44%29.95 "HgN/A
5:20 PM73 °FScattered clouds.7 mph44%29.95 "HgN/A
4:50 PM73 °FScattered clouds.8 mph47%29.98 "HgN/A
4:20 PM73 °FScattered clouds.10 mph47%29.98 "HgN/A
3:50 PM73 °FPassing clouds.6 mph50%29.98 "HgN/A
3:20 PM73 °FPassing clouds.3 mph47%29.98 "HgN/A
2:50 PM73 °FPassing clouds.5 mph47%29.98 "HgN/A
2:20 PM72 °FPassing clouds.2 mph44%29.98 "HgN/A
1:50 PM72 °FPassing clouds.5 mph53%29.98 "HgN/A
1:20 PM70 °FPassing clouds.3 mph57%30.01 "HgN/A
12:50 PM70 °FPassing clouds.2 mph57%30.01 "HgN/A
12:20 PM68 °FScattered clouds.2 mph56%30.01 "HgN/A
11:50 AM66 °FScattered clouds.2 mph64%30.01 "HgN/A
11:20 AM64 °FScattered clouds.3 mph73%30.01 "HgN/A
10:50 AM63 °FPassing clouds.5 mph73%30.01 "HgN/A
10:20 AM63 °FSunny.2 mph77%30.01 "Hg10 mi
9:50 AM61 °FSunny.2 mph77%30.01 "Hg10 mi
9:20 AM59 °FSunny.5 mph82%30.04 "Hg10 mi
8:50 AM57 °FClear.2 mph88%30.04 "Hg5 mi
8:20 AM55 °FClear.3 mph88%30.01 "Hg5 mi
7:50 AM54 °FClear.2 mph94%30.01 "Hg5 mi
7:20 AM52 °FClear.1 mph94%30.01 "Hg4 mi
6:50 AM50 °FClear.2 mph94%30.01 "Hg6 mi
6:20 AM48 °FClear.1 mph94%30.01 "Hg6 mi
Weather by CustomWeather, © 2016

See weather overviewHow to use our weather pages